Location: ????????
(60.4333°N, 46.4710°E)
Time: 19:45:07
(UTC+00:00)

FengYun 1-2 T - Pass Details

Date: 25 November 2020
Orbit: 847 x 881 km, 98.7° (Epoch: 16 January)

Event Time Altitude Azimuth Distance (km) Brightness Sun altitude
Rises 14:16:18 0° 163° (SSE) 3,432 7.4 -15.1°
Reaches altitude 10° 14:18:40 10° 165° (SSE) 2,494 6.7 -15.4°
Maximum altitude 14:24:13 80° 252° (WSW) 876 4.3 -16.0°
Drops below altitude 10° 14:29:47 10° 340° (NNW) 2,492 6.7 -16.7°
Sets 14:32:09 0° 342° (NNW) 3,429 7.4 -17.0°
